Weather History for Quillayute, WA

Change the Weather History Date:

Monday, April 7, 2014

  Actual Average Record
Temperature  
Mean Temperature 55 °F 46 °F  
Max Temperature 61 °F 54 °F 68 °F (1996)
Min Temperature 49 °F 38 °F 27 °F (1982)
Degree Days  
Heating Degree Days 10 19  
Month to date heating degree days 116 136  
Since 1 July heating degree days 3896 4629  
Cooling Degree Days 0 0  
Month to date cooling degree days 0 0  
Year to date cooling degree days 0 0  
Growing Degree Days 4 (Base 50)    
Moisture  
Dew Point 49 °F    
Average Humidity 85    
Maximum Humidity 100    
Minimum Humidity 69    
Precipitation  
Precipitation T in 0.28 in 2.29 in (2010)
Month to date precipitation 1.67 2.11  
Year to date precipitation 40.05 37.90  
Sea Level Pressure  
Sea Level Pressure 30.19 in    
Wind  
Wind Speed 6 mph (South)    
Max Wind Speed 13 mph    
Max Gust Speed 16 mph    
Visibility 5 miles    
Events Rain    
T = Trace of Precipitation, MM = Missing Value Source: NWS Daily Summary

Daily Weather History Graph

Daily Weather History Graph

Search for Another Location

Airport:

Trip Planner

Search our weather history database for the weather conditions in past years. The results will help you decide how hot, cold, wet, or windy it might be!

Date:

Astronomy

Apr. 07, 2014 Rise Set
Actual Time 6:44 AM PDT 7:57 PM PDT
Civil Twilight 6:12 AM PDT 8:29 PM PDT
Nautical Twilight 5:34 AM PDT 9:07 PM PDT
Astronomical Twilight 4:53 AM PDT 9:48 PM PDT
Moon 12:34 PM PDT (4/7) 2:49 AM PDT (4/7)
Length of Visible Light 14h 16m
Length of Day
13h 12m
First Quarter, 54% of the Moon is Illuminated
Apr 7
First Quarter
Apr 15
Full
Apr 22
Last Quarter
Apr 28
New
May 6
First Quarter

Hourly Weather History & Observations

Time (PDT) Temp. Dew Point Humidity Pressure Visibility Wind Dir Wind Speed Gust Speed Precip Events Conditions
12:06 AM 48.9 °F 48.9 °F 100% 30.28 in 2.5 mi SSE 6.9 mph - N/A   Overcast
12:16 AM 48.9 °F 48.9 °F 100% 30.28 in 3.0 mi Variable 3.5 mph - N/A   Overcast
12:53 AM 48.9 °F 48.9 °F 100% 30.28 in 4.0 mi Variable 6.9 mph - N/A   Overcast
1:53 AM 48.9 °F 48.0 °F 97% 30.28 in 8.0 mi Variable 5.8 mph - N/A   Overcast
2:32 AM 48.9 °F 48.9 °F 100% 30.27 in 2.0 mi South 5.8 mph - N/A   Overcast
2:46 AM 48.9 °F 48.9 °F 100% 30.27 in 4.0 mi South 6.9 mph - N/A   Overcast
2:53 AM 48.9 °F 48.9 °F 100% 30.27 in 4.0 mi Variable 4.6 mph - N/A   Overcast
3:53 AM 48.9 °F 48.9 °F 100% 30.27 in 4.0 mi South 6.9 mph - N/A   Overcast
4:53 AM 50.0 °F 48.9 °F 96% 30.27 in 5.0 mi Calm Calm - N/A   Overcast
5:53 AM 50.0 °F 48.9 °F 96% 30.26 in 8.0 mi South 6.9 mph - N/A   Overcast
6:53 AM 50.0 °F 48.0 °F 93% 30.25 in 8.0 mi South 6.9 mph - N/A   Overcast
7:53 AM 50.0 °F 48.9 °F 96% 30.24 in 7.0 mi SSE 3.5 mph - N/A   Overcast
8:53 AM 50.0 °F 48.0 °F 93% 30.23 in 6.0 mi SSE 4.6 mph - N/A   Overcast
9:53 AM 50.0 °F 48.9 °F 96% 30.23 in 5.0 mi South 5.8 mph - N/A   Overcast
10:53 AM 53.1 °F 48.9 °F 86% 30.22 in 7.0 mi Calm Calm - N/A   Overcast
11:12 AM 55.0 °F 50.0 °F 83% 30.21 in 7.0 mi Variable 3.5 mph - N/A   Mostly Cloudy
11:23 AM 55.9 °F 51.1 °F 84% 30.21 in 7.0 mi Variable 3.5 mph - N/A   Mostly Cloudy
11:53 AM 57.9 °F 50.0 °F 75% 30.21 in 7.0 mi South 5.8 mph - N/A   Clear
12:53 PM 60.8 °F 50.0 °F 68% 30.18 in 8.0 mi SSW 9.2 mph - N/A   Overcast
1:53 PM 57.0 °F 51.1 °F 81% 30.18 in 7.0 mi WSW 12.7 mph - N/A   Overcast
2:53 PM 57.9 °F 50.0 °F 75% 30.17 in 7.0 mi SW 9.2 mph - N/A   Partly Cloudy
3:53 PM 57.9 °F 51.1 °F 78% 30.16 in 7.0 mi Variable 6.9 mph - N/A   Overcast
4:53 PM 53.1 °F 48.9 °F 86% 30.16 in 7.0 mi SW 6.9 mph - N/A   Scattered Clouds
5:53 PM 52.0 °F 48.9 °F 89% 30.14 in 7.0 mi South 6.9 mph - N/A   Mostly Cloudy
6:06 PM 52.0 °F 48.9 °F 89% 30.14 in 6.0 mi SSW 5.8 mph - N/A   Mostly Cloudy
6:20 PM 51.1 °F 48.9 °F 92% 30.15 in 6.0 mi SW 5.8 mph - N/A   Overcast
6:50 PM 50.0 °F 48.2 °F 94% 30.14 in 3.0 mi SW 6.9 mph - N/A   Overcast
6:53 PM 50.0 °F 48.9 °F 96% 30.14 in 3.0 mi SSW 3.5 mph - N/A   Overcast
7:18 PM 50.0 °F 48.9 °F 96% 30.13 in 1.8 mi SSW 4.6 mph - N/A   Overcast
7:26 PM 50.0 °F 48.9 °F 96% 30.13 in 1.0 mi South 8.1 mph - N/A   Overcast
7:34 PM 50.0 °F 48.9 °F 96% 30.13 in 0.8 mi South 3.5 mph - N/A   Overcast
7:50 PM 48.2 °F 48.2 °F 100% 30.13 in 1.8 mi South 5.8 mph - N/A   Overcast
7:53 PM 50.0 °F 48.9 °F 96% 30.13 in 4.0 mi SSW 5.8 mph - N/A   Overcast
8:41 PM 50.0 °F 48.9 °F 96% 30.15 in 1.8 mi South 4.6 mph - N/A   Overcast
8:53 PM 50.0 °F 48.9 °F 96% 30.15 in 1.5 mi South 3.5 mph - 0.00 in Rain Light Rain
9:17 PM 50.0 °F 48.9 °F 96% 30.15 in 2.0 mi SSE 3.5 mph - 0.00 in   Overcast
9:35 PM 48.9 °F 48.9 °F 100% 30.14 in 5.0 mi SSE 5.8 mph - 0.00 in   Overcast
9:53 PM 48.9 °F 48.9 °F 100% 30.15 in 8.0 mi Variable 3.5 mph - 0.00 in   Overcast
10:40 PM 50.0 °F 48.9 °F 96% 30.15 in 8.0 mi South 4.6 mph - N/A   Overcast
10:53 PM 50.0 °F 48.9 °F 96% 30.15 in 8.0 mi SSE 4.6 mph - N/A   Overcast
11:53 PM 50.0 °F 48.9 °F 96% 30.15 in 6.0 mi Variable 5.8 mph - N/A   Overcast